Lakeville, MN

7:02 PM CST on December 02, 2016 (GMT -0600)
Airlake

Weather History for KLVN - February, 2014

Change the Weather History Date:

Friday, February 21, 2014

  Actual Average Record
Temperature  
Mean Temperature 9 °F -  
Max Temperature 15 °F 32 °F 50 °F (1977)
Min Temperature 3 °F 14 °F -20 °F (2001)
Degree Days  
Heating Degree Days 56    
Moisture  
Dew Point 6 °F    
Average Humidity 82    
Maximum Humidity 92    
Minimum Humidity 73    
Precipitation  
Precipitation 0.00 in - - ()
Sea Level Pressure  
Sea Level Pressure 29.53 in    
Wind  
Wind Speed 22 mph (West)    
Max Wind Speed 28 mph    
Max Gust Speed 36 mph    
Visibility 5 miles    
Events Snow    
Averages and records for this station are not official NWS values.
T = Trace of Precipitation, MM = Missing Value Source: NWS Daily Summary

Daily Weather History Graph

Daily Weather History Graph

Search for Another Location

Airport or City:

Trip Planner

Search our weather history database for the weather conditions in past years. The results will help you decide how hot, cold, wet, or windy it might be!

Date:

Astronomy

Feb. 21, 2014 Rise Set
Actual Time 7:03 AM CST 5:49 PM CST
Civil Twilight 6:34 AM CST 6:19 PM CST
Nautical Twilight 6:00 AM CST 6:53 PM CST
Astronomical Twilight 5:26 AM CST 7:27 PM CST
Moon No Moon Rise 10:11 AM CST (2/21)
Length of Visible Light 11h 45m
Length of Day
10h 46m
Waning Gibbous, 60% of the Moon is Illuminated
Feb 21
Waning Gibbous
Feb 22
Last Quarter
Mar 1
New
Mar 8
First Quarter
Mar 16
Full

Hourly Weather History & Observations

Time (CST) Temp. Windchill Dew Point Humidity Pressure Visibility Wind Dir Wind Speed Gust Speed Precip Events Conditions
12:00 AM 12.2 °F -6.7 °F 10.4 °F 92% 29.29 in 1.2 mi WNW 21.9 mph 31.1 mph N/A Snow Light Snow
12:21 AM 12.2 °F -8.2 °F 10.4 °F 92% 29.29 in 1.5 mi WNW 26.5 mph 32.2 mph N/A Snow Light Snow
12:40 AM 12.2 °F -6.7 °F 10.4 °F 92% 29.29 in 1.5 mi WNW 21.9 mph 33.4 mph N/A Snow Light Snow
1:01 AM 12.2 °F -7.5 °F 10.4 °F 92% 29.29 in 1.5 mi WNW 24.2 mph 33.4 mph N/A Snow Light Snow
1:20 AM 12.2 °F -7.1 °F 10.4 °F 92% 29.30 in 1.5 mi WNW 23.0 mph 32.2 mph N/A Snow Light Snow
1:40 AM 10.4 °F -9.5 °F 8.6 °F 92% 29.30 in 1.5 mi West 23.0 mph 28.8 mph N/A Snow Light Snow
2:00 AM 10.4 °F -9.9 °F 8.6 °F 92% 29.31 in 1.5 mi WNW 24.2 mph 31.1 mph N/A Snow Light Snow
2:21 AM 10.4 °F -7.2 °F 8.6 °F 92% 29.33 in 1.5 mi West 17.3 mph 34.5 mph N/A Snow Light Snow
2:40 AM 10.4 °F -7.7 °F 8.6 °F 92% 29.33 in 1.5 mi West 18.4 mph 31.1 mph N/A Snow Light Snow
3:01 AM 10.4 °F -9.9 °F 8.6 °F 92% 29.33 in 1.5 mi West 24.2 mph 32.2 mph N/A Snow Light Snow
3:20 AM 10.4 °F -10.7 °F 6.8 °F 85% 29.34 in 1.2 mi West 26.5 mph 33.4 mph N/A Snow Light Snow
3:41 AM 8.6 °F -13.1 °F 6.8 °F 92% 29.33 in 1.5 mi West 26.5 mph 33.4 mph N/A Snow Light Snow
4:00 AM 8.6 °F -11.9 °F 6.8 °F 92% 29.35 in 1.5 mi West 23.0 mph 33.4 mph N/A Snow Light Snow
4:21 AM 8.6 °F -12.3 °F 5.0 °F 85% 29.35 in 1.5 mi West 24.2 mph 35.7 mph N/A Snow Light Snow
4:40 AM 8.6 °F -11.4 °F 3.2 °F 79% 29.37 in 2.5 mi West 21.9 mph 32.2 mph N/A   Mostly Cloudy
5:01 AM 6.8 °F -14.3 °F 3.2 °F 85% 29.39 in 2.5 mi West 23.0 mph 28.8 mph N/A   Scattered Clouds
5:21 AM 6.8 °F -14.7 °F 3.2 °F 85% 29.39 in 2.5 mi West 24.2 mph 34.5 mph N/A   Scattered Clouds
5:40 AM 6.8 °F -13.8 °F 1.4 °F 79% 29.40 in 4.0 mi West 21.9 mph 29.9 mph N/A   Scattered Clouds
6:01 AM 6.8 °F -14.7 °F 1.4 °F 79% 29.40 in 4.0 mi West 24.2 mph 29.9 mph N/A   Clear
6:20 AM 5.0 °F -17.1 °F 1.4 °F 85% 29.41 in 2.5 mi West 24.2 mph 32.2 mph N/A   Clear
6:41 AM 6.8 °F -12.9 °F 1.4 °F 79% 29.43 in 5.0 mi West 19.6 mph 26.5 mph N/A   Clear
7:00 AM 5.0 °F -13.0 °F 1.4 °F 85% 29.45 in 7.0 mi West 15.0 mph 23.0 mph N/A   Scattered Clouds
7:21 AM 3.2 °F -15.3 °F -0.4 °F 85% 29.46 in 4.0 mi West 15.0 mph 24.2 mph N/A   Clear
7:41 AM 3.2 °F -15.9 °F -0.4 °F 85% 29.47 in 3.0 mi West 16.1 mph 25.3 mph N/A   Scattered Clouds
8:00 AM 3.2 °F -17.1 °F -0.4 °F 85% 29.48 in 4.0 mi West 18.4 mph 26.5 mph N/A   Scattered Clouds
8:21 AM 3.2 °F -18.6 °F -0.4 °F 85% 29.48 in 2.5 mi West 21.9 mph 26.5 mph N/A   Mist
8:40 AM 5.0 °F -15.2 °F -0.4 °F 78% 29.49 in 3.0 mi West 19.6 mph 28.8 mph N/A   Haze
9:01 AM 5.0 °F -16.7 °F -0.4 °F 78% 29.48 in 2.0 mi West 23.0 mph 26.5 mph N/A   Haze
9:20 AM 5.0 °F -15.2 °F -0.4 °F 78% 29.49 in 2.0 mi West 19.6 mph 29.9 mph N/A   Haze
9:40 AM 6.8 °F -13.8 °F 1.4 °F 79% 29.49 in 2.5 mi West 21.9 mph 29.9 mph N/A   Haze
10:00 AM 6.8 °F -15.1 °F 1.4 °F 79% 29.50 in 1.8 mi West 25.3 mph 31.1 mph N/A   Haze
10:20 AM 6.8 °F -11.8 °F 1.4 °F 79% 29.51 in 1.8 mi West 17.3 mph 31.1 mph N/A   Haze
10:41 AM 6.8 °F -15.1 °F 1.4 °F 79% 29.52 in 1.8 mi West 25.3 mph 32.2 mph N/A   Haze
11:00 AM 6.8 °F -14.3 °F 1.4 °F 79% 29.53 in 2.0 mi West 23.0 mph 28.8 mph N/A   Haze
11:21 AM 8.6 °F -8.3 °F 1.4 °F 73% 29.54 in 3.0 mi West 15.0 mph 25.3 mph N/A   Haze
11:40 AM 8.6 °F -11.0 °F 1.4 °F 73% 29.54 in 2.0 mi West 20.7 mph 31.1 mph N/A   Haze
12:01 PM 8.6 °F -11.0 °F 3.2 °F 79% 29.54 in 4.0 mi West 20.7 mph 27.6 mph N/A   Haze
12:21 PM 8.6 °F -11.0 °F 3.2 °F 79% 29.54 in 3.0 mi West 20.7 mph 28.8 mph N/A   Haze
12:41 PM 10.4 °F -9.9 °F 3.2 °F 73% 29.54 in 3.0 mi West 24.2 mph 29.9 mph N/A   Haze
1:00 PM 10.4 °F -9.1 °F 3.2 °F 73% 29.55 in 2.0 mi West 21.9 mph 31.1 mph N/A   Haze
1:20 PM 10.4 °F -11.0 °F 5.0 °F 79% 29.56 in 2.0 mi West 27.6 mph 33.4 mph N/A   Haze
1:41 PM 10.4 °F -9.5 °F 6.8 °F 85% 29.57 in 2.0 mi West 23.0 mph 32.2 mph N/A   Haze
2:00 PM 12.2 °F -7.9 °F 6.8 °F 79% 29.57 in 3.0 mi West 25.3 mph 32.2 mph N/A   Haze
2:21 PM 12.2 °F -7.1 °F 6.8 °F 79% 29.58 in 3.0 mi West 23.0 mph 29.9 mph N/A   Haze
2:40 PM 12.2 °F -5.8 °F 8.6 °F 85% 29.59 in 3.0 mi West 19.6 mph 29.9 mph N/A   Haze
3:00 PM 12.2 °F -6.7 °F 8.6 °F 85% 29.60 in 2.5 mi West 21.9 mph 34.5 mph N/A   Haze
3:21 PM 14.0 °F -5.8 °F 8.6 °F 79% 29.60 in 3.0 mi West 26.5 mph 31.1 mph N/A   Haze
3:40 PM 14.0 °F -3.9 °F 8.6 °F 79% 29.61 in 3.0 mi West 20.7 mph 31.1 mph N/A   Haze
4:00 PM 15.8 °F -2.3 °F 8.6 °F 73% 29.62 in 3.0 mi West 23.0 mph 29.9 mph N/A   Haze
4:21 PM 15.8 °F -0.2 °F 8.6 °F 73% 29.63 in 4.0 mi West 17.3 mph 32.2 mph N/A   Haze
4:40 PM 15.8 °F -1.1 °F 8.6 °F 73% 29.64 in 7.0 mi West 19.6 mph 29.9 mph N/A   Clear
5:01 PM 15.8 °F -1.5 °F 8.6 °F 73% 29.65 in 7.0 mi West 20.7 mph 31.1 mph N/A   Clear
5:20 PM 14.0 °F -3.4 °F 8.6 °F 79% 29.66 in 7.0 mi West 19.6 mph 27.6 mph N/A   Clear
5:40 PM 14.0 °F -3.9 °F 8.6 °F 79% 29.66 in 7.0 mi West 20.7 mph 28.8 mph N/A   Clear
6:01 PM 14.0 °F -3.4 °F 8.6 °F 79% 29.67 in 10.0 mi West 19.6 mph 26.5 mph N/A   Clear
6:20 PM 14.0 °F -2.5 °F 8.6 °F 79% 29.69 in 10.0 mi West 17.3 mph 25.3 mph N/A   Clear
6:40 PM 14.0 °F -1.4 °F 8.6 °F 79% 29.70 in 10.0 mi West 15.0 mph 24.2 mph N/A   Clear
7:01 PM 14.0 °F -3.0 °F 8.6 °F 79% 29.70 in 10.0 mi West 18.4 mph 26.5 mph N/A   Clear
7:20 PM 14.0 °F -3.9 °F 8.6 °F 79% 29.70 in 10.0 mi West 20.7 mph 26.5 mph N/A   Clear
7:40 PM 14.0 °F -3.4 °F 8.6 °F 79% 29.71 in 10.0 mi West 19.6 mph 25.3 mph N/A   Clear
8:01 PM 14.0 °F -3.0 °F 8.6 °F 79% 29.71 in 10.0 mi West 18.4 mph 27.6 mph N/A   Clear
8:20 PM 14.0 °F -3.4 °F 8.6 °F 79% 29.72 in 10.0 mi West 19.6 mph 26.5 mph N/A   Clear
8:40 PM 12.2 °F -5.3 °F 8.6 °F 85% 29.73 in 10.0 mi West 18.4 mph 25.3 mph N/A   Clear
9:00 PM 12.2 °F -5.8 °F 8.6 °F 85% 29.73 in 10.0 mi West 19.6 mph 26.5 mph N/A   Clear
9:20 PM 12.2 °F -4.8 °F 6.8 °F 79% 29.74 in 10.0 mi West 17.3 mph 23.0 mph N/A   Clear
9:41 PM 12.2 °F -4.8 °F 6.8 °F 79% 29.75 in 10.0 mi West 17.3 mph - N/A   Clear
10:00 PM 12.2 °F -4.8 °F 6.8 °F 79% 29.74 in 10.0 mi West 17.3 mph 21.9 mph N/A   Clear
10:21 PM 10.4 °F -5.4 °F 6.8 °F 85% 29.75 in 10.0 mi West 13.8 mph - N/A   Clear
10:40 PM 10.4 °F -6.6 °F 6.8 °F 85% 29.75 in 10.0 mi West 16.1 mph - N/A   Clear
11:00 PM 10.4 °F -8.2 °F 6.8 °F 85% 29.74 in 10.0 mi West 19.6 mph 24.2 mph N/A   Clear
11:21 PM 10.4 °F -6.0 °F 5.0 °F 79% 29.75 in 10.0 mi West 15.0 mph 21.9 mph N/A   Clear
11:40 PM 10.4 °F -6.6 °F 5.0 °F 79% 29.76 in 10.0 mi West 16.1 mph 20.7 mph N/A   Clear